When you browse on this site, cookies collect data to enhance your experience and personalize the content and advertising you see.
Visit our Privacy Policy to learn more. By continuing to use the site, you agree to this use of cookies and data.
  • In Sweden
  • List of Countries
  • For 7 days
  • Water Temperature
  • Weather Map
  • Weather Widgets
  • user-avatar
    Login

    Hourly Weather Innsbruck

    Today, 28 May, Thursday

    Time Temperature Precipitation Wind Pressure Humidity
    00:00 0°C° 0 mm 1 mps 601 mmHg 88%
    01:00 0°C° 0 mm 1 mps 601 mmHg 88%
    02:00 0°C° 0 mm 1 mps 601 mmHg 88%
    03:00 0°C° 0 mm 1 mps 601 mmHg 88%
    04:00 0°C° 0 mm 1 mps 600 mmHg 88%
    05:00 +2°C° 0 mm 1 mps 601 mmHg 82%
    06:00 +3°C° 0 mm 1 mps 601 mmHg 77%
    07:00 +5°C° 0 mm 1 mps 602 mmHg 71%
    08:00 +5°C° 0 mm 2 mps 602 mmHg 64%
    09:00 +7°C° 0 mm 2 mps 603 mmHg 58%
    10:00 +8°C° 0 mm 2 mps 603 mmHg 51%
    11:00 +7°C° 0.3 mm 2 mps 603 mmHg 60%
    12:00 +7°C° 0.3 mm 2 mps 602 mmHg 69%
    13:00 +5°C° 0.3 mm 3 mps 601 mmHg 78%
    14:00 +5°C° 0.4 mm 3 mps 601 mmHg 77%
    15:00 +6°C° 0.4 mm 2 mps 601 mmHg 77%
    16:00 +6°C° 0.4 mm 2 mps 601 mmHg 77%
    17:00 +5°C° 0.4 mm 2 mps 600 mmHg 82%
    18:00 +4°C° 0.4 mm 2 mps 600 mmHg 87%
    19:00 +4°C° 0.4 mm 2 mps 599 mmHg 92%
    20:00 +2°C° 0.1 mm 2 mps 599 mmHg 93%
    21:00 +1°C° 0.1 mm 2 mps 599 mmHg 95%
    22:00 +1°C° 0.1 mm 1 mps 599 mmHg 96%
    23:00 +1°C° 0.1 mm 1 mps 599 mmHg 96%

    Tomorrow, 29 May, Friday

    Time Temperature Precipitation Wind Pressure Humidity
    00:00 +1°C° 0.1 mm 1 mps 599 mmHg 96%
    01:00 0°C° 0.1 mm 1 mps 599 mmHg 96%
    02:00 0°C° 0 mm 1 mps 598 mmHg 96%
    03:00 0°C° 0 mm 1 mps 598 mmHg 96%
    04:00 -1°C° 0 mm 1 mps 598 mmHg 96%
    05:00 0°C° 0 mm 1 mps 598 mmHg 92%
    06:00 +1°C° 0 mm 1 mps 598 mmHg 89%
    07:00 +2°C° 0 mm 1 mps 599 mmHg 86%
    08:00 +2°C° 0 mm 2 mps 599 mmHg 77%
    09:00 +4°C° 0 mm 2 mps 599 mmHg 69%
    10:00 +5°C° 0 mm 2 mps 600 mmHg 60%
    11:00 +6°C° 0 mm 2 mps 599 mmHg 59%
    12:00 +6°C° 0 mm 2 mps 599 mmHg 57%
    13:00 +7°C° 0 mm 3 mps 599 mmHg 55%
    14:00 +7°C° 0 mm 3 mps 599 mmHg 56%
    15:00 +7°C° 0 mm 3 mps 599 mmHg 58%
    16:00 +7°C° 0 mm 3 mps 598 mmHg 59%
    17:00 +6°C° 0.1 mm 2 mps 598 mmHg 66%
    18:00 +5°C° 0.1 mm 2 mps 598 mmHg 73%
    19:00 +4°C° 0.1 mm 2 mps 597 mmHg 80%
    20:00 +3°C° 0 mm 1 mps 597 mmHg 85%
    21:00 +2°C° 0 mm 1 mps 596 mmHg 91%
    22:00 0°C° 0 mm 1 mps 596 mmHg 97%
    23:00 +1°C° 0 mm 1 mps 596 mmHg 97%

    Day after tomorrow, 30 May, Saturday

    Time Temperature Precipitation Wind Pressure Humidity
    00:00 +1°C° 0 mm 1 mps 596 mmHg 96%
    01:00 0°C° 0 mm 0 mps 596 mmHg 96%
    02:00 0°C° 0 mm 0 mps 596 mmHg 95%
    03:00 -1°C° 0 mm 0 mps 595 mmHg 95%
    04:00 -1°C° 0 mm 0 mps 595 mmHg 95%
    05:00 +1°C° 0 mm 1 mps 596 mmHg 92%
    06:00 +2°C° 0 mm 1 mps 596 mmHg 89%
    07:00 +3°C° 0 mm 1 mps 596 mmHg 85%
    08:00 +3°C° 0.1 mm 1 mps 596 mmHg 81%
    09:00 +3°C° 0.1 mm 2 mps 597 mmHg 77%
    10:00 +4°C° 0.1 mm 2 mps 597 mmHg 72%
    11:00 +5°C° 0.1 mm 2 mps 597 mmHg 69%
    12:00 +5°C° 0.1 mm 2 mps 597 mmHg 66%
    13:00 +6°C° 0.1 mm 2 mps 597 mmHg 63%
    14:00 +6°C° 0 mm 2 mps 597 mmHg 64%
    15:00 +4°C° 0 mm 3 mps 597 mmHg 64%
    16:00 +4°C° 0 mm 3 mps 597 mmHg 64%
    17:00 +4°C° 0 mm 2 mps 596 mmHg 69%
    18:00 +4°C° 0 mm 2 mps 596 mmHg 74%
    19:00 +3°C° 0 mm 2 mps 596 mmHg 79%
    20:00 +3°C° 0 mm 1 mps 596 mmHg 84%
    21:00 +1°C° 0 mm 1 mps 595 mmHg 89%
    22:00 0°C° 0 mm 1 mps 595 mmHg 94%
    23:00 0°C° 0 mm 1 mps 595 mmHg 94%

    31 May, Sunday

    Time Temperature Precipitation Wind Pressure Humidity
    00:00 0°C° 0 mm 1 mps 595 mmHg 95%
    01:00 -1°C° 0 mm 1 mps 594 mmHg 95%
    02:00 -1°C° 0 mm 1 mps 594 mmHg 95%
    03:00 -1°C° 0 mm 1 mps 594 mmHg 95%
    04:00 -1°C° 0 mm 1 mps 594 mmHg 95%
    05:00 0°C° 0 mm 1 mps 595 mmHg 88%
    06:00 +2°C° 0 mm 1 mps 595 mmHg 82%
    07:00 +3°C° 0 mm 1 mps 596 mmHg 76%
    08:00 +5°C° 0 mm 1 mps 596 mmHg 68%
    09:00 +5°C° 0 mm 2 mps 597 mmHg 60%
    10:00 +7°C° 0 mm 2 mps 598 mmHg 52%
    11:00 +8°C° 0 mm 2 mps 598 mmHg 49%
    12:00 +9°C° 0 mm 2 mps 598 mmHg 46%
    13:00 +9°C° 0 mm 3 mps 598 mmHg 42%
    14:00 +9°C° 0 mm 3 mps 598 mmHg 45%
    15:00 +9°C° 0 mm 3 mps 598 mmHg 47%
    16:00 +9°C° 0 mm 3 mps 598 mmHg 50%
    17:00 +7°C° 0 mm 3 mps 597 mmHg 59%
    18:00 +6°C° 0 mm 2 mps 597 mmHg 68%
    19:00 +5°C° 0 mm 2 mps 597 mmHg 77%
    20:00 +4°C° 0 mm 2 mps 596 mmHg 84%
    21:00 +3°C° 0 mm 1 mps 596 mmHg 90%
    22:00 +2°C° 0 mm 1 mps 596 mmHg 97%
    23:00 +2°C° 0 mm 1 mps 596 mmHg 96%

    1 June, Monday

    Time Temperature Precipitation Wind Pressure Humidity
    00:00 +2°C° 0 mm 1 mps 596 mmHg 95%
    01:00 +2°C° 0 mm 1 mps 596 mmHg 94%
    02:00 +2°C° 0 mm 1 mps 595 mmHg 93%
    03:00 +1°C° 0 mm 1 mps 595 mmHg 92%
    04:00 0°C° 0 mm 0 mps 594 mmHg 91%
    05:00 +2°C° 0 mm 1 mps 595 mmHg 85%
    06:00 +4°C° 0 mm 1 mps 596 mmHg 79%
    07:00 +6°C° 0 mm 1 mps 597 mmHg 73%
    08:00 +8°C° 0 mm 1 mps 597 mmHg 67%
    09:00 +9°C° 0 mm 1 mps 598 mmHg 60%
    10:00 +10°C° 0 mm 2 mps 599 mmHg 54%
    11:00 +12°C° 0 mm 2 mps 598 mmHg 55%
    12:00 +12°C° 0 mm 2 mps 598 mmHg 56%
    13:00 +12°C° 0 mm 2 mps 598 mmHg 58%
    14:00 +12°C° 0.2 mm 2 mps 598 mmHg 59%
    15:00 +11°C° 0.2 mm 3 mps 598 mmHg 60%
    16:00 +11°C° 0.2 mm 3 mps 598 mmHg 62%
    17:00 +10°C° 0.2 mm 2 mps 597 mmHg 68%
    18:00 +9°C° 0.2 mm 2 mps 597 mmHg 74%
    19:00 +8°C° 0.2 mm 2 mps 596 mmHg 80%
    20:00 +7°C° 0 mm 1 mps 596 mmHg 85%
    21:00 +5°C° 0 mm 1 mps 595 mmHg 90%
    22:00 +3°C° 0 mm 1 mps 595 mmHg 95%
    23:00 +3°C° 0 mm 1 mps 594 mmHg 95%

    2 June, Tuesday

    Time Temperature Precipitation Wind Pressure Humidity
    00:00 +3°C° 0 mm 1 mps 594 mmHg 96%
    01:00 +3°C° 0 mm 1 mps 594 mmHg 96%
    02:00 +2°C° 0 mm 1 mps 593 mmHg 94%
    03:00 +2°C° 0 mm 1 mps 593 mmHg 92%
    04:00 +1°C° 0 mm 1 mps 593 mmHg 90%
    05:00 +4°C° 0 mm 1 mps 594 mmHg 83%
    06:00 +5°C° 0 mm 0 mps 595 mmHg 76%
    07:00 +7°C° 0 mm 0 mps 596 mmHg 69%
    08:00 +10°C° 0 mm 1 mps 596 mmHg 60%
    09:00 +12°C° 0 mm 1 mps 597 mmHg 52%
    10:00 +14°C° 0 mm 2 mps 597 mmHg 44%
    11:00 +15°C° 0 mm 2 mps 598 mmHg 41%
    12:00 +15°C° 0 mm 2 mps 598 mmHg 39%
    13:00 +16°C° 0 mm 2 mps 598 mmHg 37%
    14:00 +16°C° 0 mm 2 mps 597 mmHg 39%
    15:00 +16°C° 0 mm 2 mps 597 mmHg 42%
    16:00 +14°C° 0 mm 3 mps 596 mmHg 45%
    17:00 +14°C° 0.2 mm 2 mps 595 mmHg 56%
    18:00 +12°C° 0.2 mm 2 mps 595 mmHg 67%
    19:00 +11°C° 0.2 mm 1 mps 594 mmHg 78%
    20:00 +9°C° 0.1 mm 1 mps 593 mmHg 83%
    21:00 +7°C° 0.1 mm 1 mps 592 mmHg 87%
    22:00 +5°C° 0.1 mm 1 mps 592 mmHg 92%
    23:00 +5°C° 0 mm 1 mps 591 mmHg 91%
    Show more